Huntington, WV

9:30 PM EDT on September 24, 2017 (GMT -0400)
Tri-State / Ferguson

Weather History for KHTS - January, 2014

Change the Weather History Date:

Tuesday, January 21, 2014

  Actual Average Record
Temperature  
Mean Temperature 22 °F 34 °F  
Max Temperature 34 °F 42 °F 70 °F (1935)
Min Temperature 10 °F 25 °F -16 °F (1985)
Degree Days  
Heating Degree Days 43 31  
Month to date heating degree days 700 657  
Since 1 July heating degree days 2448 2412  
Cooling Degree Days 0 0  
Month to date cooling degree days 0 0  
Year to date cooling degree days 0 0  
Moisture  
Dew Point 20 °F    
Average Humidity 80    
Maximum Humidity 92    
Minimum Humidity 67    
Precipitation  
Precipitation 0.23 in 0.09 in 1.73 in (1933)
Month to date precipitation 2.12 2.00  
Year to date precipitation 2.12 2.00  
Snow  
Snow 4.50 in - - ()
Month to date snowfall 6.7  
Since 1 September snowfall 14.2  
Snow Depth 1.00 in    
Sea Level Pressure  
Sea Level Pressure 29.88 in    
Wind  
Wind Speed 9 mph (North)    
Max Wind Speed 20 mph    
Max Gust Speed 27 mph    
Visibility 4 miles    
Events Fog , Snow    
T = Trace of Precipitation, MM = Missing Value Source: NWS Daily Summary

Daily Weather History Graph

Daily Weather History Graph

Search for Another Location

Airport or City:

Trip Planner

Search our weather history database for the weather conditions in past years. The results will help you decide how hot, cold, wet, or windy it might be!

Date:

Astronomy

Jan. 21, 2014 Rise Set
Actual Time 7:43 AM EST 5:40 PM EST
Civil Twilight 7:14 AM EST 6:08 PM EST
Nautical Twilight 6:42 AM EST 6:41 PM EST
Astronomical Twilight 6:10 AM EST 7:12 PM EST
Moon 11:06 PM EST (1/21) 10:17 AM EST (1/21)
Length of Visible Light 10h 54m
Length of Day
9h 57m
Waning Gibbous, 75% of the Moon is Illuminated
Jan 21
Waning Gibbous
Jan 24
Last Quarter
Jan 30
New
Feb 6
First Quarter
Feb 14
Full

Hourly Weather History & Observations

Time (EST) Temp. Windchill Dew Point Humidity Pressure Visibility Wind Dir Wind Speed Gust Speed Precip Events Conditions
12:51 AM 34.0 °F - 25.0 °F 70% 29.86 in 10.0 mi Calm Calm - N/A   Mostly Cloudy
1:51 AM 32.0 °F 28.7 °F 25.0 °F 75% 29.81 in 10.0 mi NE 3.5 mph - N/A   Clear
2:51 AM 32.0 °F 27.5 °F 26.1 °F 79% 29.79 in 10.0 mi NE 4.6 mph - N/A   Overcast
3:45 AM 32.0 °F 28.7 °F 26.6 °F 80% 29.78 in 2.5 mi North 3.5 mph - 0.00 in Snow Light Snow
3:51 AM 32.0 °F 26.4 °F 27.0 °F 82% 29.79 in 1.8 mi North 5.8 mph - 0.00 in Snow Light Snow
4:07 AM 30.9 °F 25.2 °F 28.0 °F 89% 29.77 in 0.8 mi NNE 5.8 mph - 0.00 in Snow Light Snow
4:34 AM 30.9 °F 25.2 °F 28.9 °F 92% 29.77 in 1.0 mi North 5.8 mph - 0.02 in Snow Light Snow
4:51 AM 30.9 °F 27.5 °F 28.9 °F 92% 29.78 in 1.0 mi NNE 3.5 mph - 0.03 in Snow Light Snow
5:15 AM 30.0 °F 25.2 °F 28.9 °F 96% 29.76 in 0.8 mi North 4.6 mph - 0.02 in Snow Light Snow
5:22 AM 30.0 °F 25.2 °F 28.9 °F 96% 29.75 in 1.0 mi NNE 4.6 mph - 0.02 in Snow Light Snow
5:51 AM 30.0 °F 23.2 °F 28.0 °F 92% 29.76 in 1.0 mi NNE 6.9 mph - 0.04 in Snow Light Snow
6:30 AM 30.0 °F 22.4 °F 28.0 °F 92% 29.73 in 2.5 mi NE 8.1 mph - 0.02 in Snow Light Snow
6:35 AM 30.0 °F 25.2 °F 28.0 °F 92% 29.73 in 3.0 mi NNE 4.6 mph - 0.02 in Snow Light Snow
6:51 AM 30.0 °F 24.1 °F 28.0 °F 92% 29.75 in 4.0 mi NNE 5.8 mph - 0.02 in Snow Light Snow
7:51 AM 30.0 °F 23.2 °F 27.0 °F 88% 29.76 in 7.0 mi North 6.9 mph - 0.00 in   Overcast
8:51 AM 30.0 °F 24.1 °F 27.0 °F 88% 29.77 in 4.0 mi North 5.8 mph - 0.00 in Snow Light Snow
9:05 AM 30.0 °F 21.7 °F 27.0 °F 88% 29.75 in 2.0 mi NNE 9.2 mph - 0.00 in Snow Light Snow
9:16 AM 28.9 °F 21.9 °F 27.0 °F 92% 29.75 in 1.5 mi North 6.9 mph - 0.00 in Snow Light Snow
9:51 AM 28.9 °F 20.4 °F 27.0 °F 92% 29.80 in 0.8 mi North 9.2 mph - 0.01 in Snow Light Snow
10:10 AM 28.9 °F 20.4 °F 27.0 °F 92% 29.78 in 0.2 mi North 9.2 mph - 0.02 in Fog , Snow Snow
10:33 AM 28.9 °F 20.4 °F 26.1 °F 89% 29.78 in 0.5 mi North 9.2 mph - 0.04 in Fog , Snow Snow
10:51 AM 28.9 °F 19.2 °F 26.1 °F 89% 29.81 in 0.5 mi North 11.5 mph - 0.05 in Fog , Snow Snow
10:56 AM 28.9 °F 19.2 °F 26.1 °F 89% 29.79 in 0.8 mi North 11.5 mph - 0.00 in Snow Light Snow
11:51 AM 24.1 °F 14.4 °F 21.9 °F 91% 29.85 in 0.2 mi North 9.2 mph 21.9 mph 0.04 in Fog , Snow Snow
12:03 PM 24.1 °F 10.6 °F 21.0 °F 88% 29.83 in 0.5 mi North 17.3 mph 23.0 mph 0.02 in Fog , Snow Light Snow
12:51 PM 23.0 °F 11.1 °F 19.0 °F 85% 29.86 in 0.8 mi North 12.7 mph - 0.03 in Snow Light Snow
1:51 PM 23.0 °F 11.7 °F 16.0 °F 74% 29.88 in 2.5 mi NNW 11.5 mph 23.0 mph 0.01 in Snow Light Snow
2:14 PM 24.1 °F 13.1 °F 17.1 °F 75% 29.87 in 1.8 mi NNW 11.5 mph 20.7 mph 0.00 in Snow Light Snow
2:22 PM 24.1 °F 12.5 °F 16.0 °F 71% 29.87 in 2.5 mi North 12.7 mph - 0.00 in Snow Light Snow
2:29 PM 24.1 °F 12.5 °F 16.0 °F 71% 29.87 in 5.0 mi North 12.7 mph - 0.00 in Snow Light Snow
2:51 PM 24.1 °F 12.5 °F 15.1 °F 69% 29.91 in 10.0 mi NNW 12.7 mph 19.6 mph 0.00 in   Overcast
3:51 PM 21.9 °F 9.8 °F 14.0 °F 72% 29.95 in 5.0 mi NW 12.7 mph 23.0 mph 0.00 in Snow Light Snow
4:07 PM 21.0 °F 8.1 °F 14.0 °F 74% 29.94 in 2.0 mi NW 13.8 mph 20.7 mph 0.00 in Snow Light Snow
4:19 PM 21.0 °F 6.6 °F 12.9 °F 71% 29.95 in 4.0 mi NW 17.3 mph 21.9 mph 0.00 in Snow Light Snow
4:36 PM 19.9 °F 8.6 °F 14.0 °F 78% 29.96 in 2.5 mi NW 10.4 mph 23.0 mph 0.00 in Snow Light Snow
4:49 PM 19.4 °F 7.9 °F 12.2 °F 74% 29.97 in 3.0 mi NW 10.4 mph 19.6 mph 0.00 in Snow Light Snow
4:51 PM 19.9 °F 9.3 °F 12.9 °F 74% 30.00 in 3.0 mi NW 9.2 mph 19.6 mph 0.00 in Snow Light Snow
5:51 PM 19.0 °F 9.0 °F 10.9 °F 71% 30.04 in 3.0 mi NW 8.1 mph 18.4 mph 0.00 in Snow Light Snow
6:51 PM 16.0 °F 0.6 °F 9.0 °F 74% 30.07 in 3.0 mi NW 16.1 mph 21.9 mph 0.00 in Snow Light Snow
7:13 PM 16.0 °F 0.6 °F 7.0 °F 68% 30.05 in 9.0 mi NW 16.1 mph 26.5 mph 0.00 in   Overcast
7:51 PM 15.1 °F -1.1 °F 7.0 °F 70% 30.10 in 5.0 mi NW 17.3 mph 27.6 mph 0.00 in Snow Light Snow
8:51 PM 14.0 °F 2.9 °F 6.1 °F 71% 30.11 in 4.0 mi NW 8.1 mph 23.0 mph 0.00 in Snow Light Snow
8:58 PM 14.0 °F 2.0 °F 6.1 °F 71% 30.08 in 6.0 mi NW 9.2 mph - 0.00 in Snow Light Snow
9:51 PM 12.9 °F -0.2 °F 3.9 °F 67% 30.12 in 10.0 mi NNW 10.4 mph - 0.00 in   Overcast
10:51 PM 10.9 °F -2.6 °F 3.0 °F 70% 30.13 in 10.0 mi NW 10.4 mph - 0.00 in   Overcast
11:51 PM 10.0 °F -4.5 °F 1.9 °F 70% 30.14 in 10.0 mi NNW 11.5 mph - N/A   Overcast